Location: Pl�tzky
(52.0521°N, 11.8020°E)
Time: 20:46:33
(UTC+00:00)

SL-16 R/B - Pass Details

Date: 22 November 2019
Orbit: 842 x 846 km, 71.0° (Epoch: 14 December)

Event Time Altitude Azimuth Distance (km) Brightness Sun altitude
Rises 16:50:43 0° 169° (SSE) 3,391 5.4 -14.6°
Reaches altitude 10° 16:53:32 10° 156° (SSE) 2,461 4.5 -15.0°
Maximum altitude 16:58:03 25° 103° (ESE) 1,644 3.2 -15.6°
Enters shadow 16:59:00 24° 87° (E) 1,692 3.2 -15.8°
